Weather History for KD55 - August, 2013

Change the Weather History Date:

Friday, August 2, 2013

  Actual Average (KDVL) Record (KDVL)
Temperature  
Mean Temperature 58 °F -  
Max Temperature 71 °F 79 °F 96 °F (1955)
Min Temperature 44 °F 56 °F 43 °F (1971)
Degree Days  
Heating Degree Days 8    
Growing Degree Days 8 (Base 50)    
Moisture  
Dew Point 43 °F    
Average Humidity 56    
Maximum Humidity 60    
Minimum Humidity 52    
Precipitation  
Precipitation 0.00 in - - ()
Sea Level Pressure  
Sea Level Pressure 30.04 in    
Wind  
Wind Speed 5 mph (North)    
Max Wind Speed 12 mph    
Max Gust Speed 22 mph    
Visibility 10 miles    
Events      
Averages and records for this station are not official NWS values.
T = Trace of Precipitation, MM = Missing Value Source: NWS Daily Summary

Daily Weather History Graph

Daily Weather History Graph

Search for Another Location

Airport or City:

Trip Planner

Search our weather history database for the weather conditions in past years. The results will help you decide how hot, cold, wet, or windy it might be!

Date:

Astronomy

Aug. 02, 2013 Rise Set
Actual Time 6:09 AM CDT 9:09 PM CDT
Civil Twilight 5:31 AM CDT 9:46 PM CDT
Nautical Twilight 4:43 AM CDT 10:34 PM CDT
Astronomical Twilight 3:44 AM CDT 11:32 PM CDT
Moon 2:27 AM CDT (8/2) 6:12 PM CDT (8/2)
Length of Visible Light 16h 14m
Length of Day
15h 00m
Waning Crescent, 15% of the Moon is Illuminated
Aug 2
Waning Crescent
Aug 6
New
Aug 14
First Quarter
Aug 20
Full
Aug 28
Last Quarter

Hourly Weather History & Observations

Time (CDT) Temp. Windchill Dew Point Humidity Pressure Visibility Wind Dir Wind Speed Gust Speed Precip Events Conditions
12:15 AM 50.0 °F - 35.6 °F 58% 29.96 in 10.0 mi NNW 3.5 mph - N/A   Clear
12:35 AM 50.0 °F - 35.6 °F 58% 29.97 in 10.0 mi NW 3.5 mph - N/A   Clear
12:55 AM 48.2 °F - 33.8 °F 58% 29.96 in 10.0 mi Calm Calm - N/A   Clear
1:15 AM 50.0 °F - 35.6 °F 58% 29.97 in 10.0 mi Calm Calm - N/A   Scattered Clouds
1:35 AM 48.2 °F - 33.8 °F 58% 29.96 in 10.0 mi Calm Calm - N/A   Partly Cloudy
1:55 AM 46.4 °F - 32.0 °F 57% 29.97 in 10.0 mi Calm Calm - N/A   Clear
2:15 AM 46.4 °F - 32.0 °F 57% 29.97 in 10.0 mi Calm Calm - N/A   Partly Cloudy
2:35 AM 48.2 °F - 32.0 °F 54% 29.97 in 10.0 mi WNW 3.5 mph - N/A   Mostly Cloudy
2:55 AM 48.2 °F - 33.8 °F 58% 29.97 in 10.0 mi WNW 3.5 mph - N/A   Scattered Clouds
3:15 AM 48.2 °F - 33.8 °F 58% 29.97 in 10.0 mi Calm Calm - N/A   Clear
3:35 AM 48.2 °F - 32.0 °F 54% 29.97 in 10.0 mi NNW 3.5 mph - N/A   Clear
3:55 AM 46.4 °F 45.2 °F 32.0 °F 57% 29.98 in 10.0 mi WNW 3.5 mph - N/A   Scattered Clouds
4:15 AM 48.2 °F - 32.0 °F 54% 29.98 in 10.0 mi North 3.5 mph - N/A   Partly Cloudy
4:35 AM 46.4 °F 42.9 °F 32.0 °F 57% 29.98 in 10.0 mi North 6.9 mph - N/A   Clear
4:55 AM 46.4 °F 43.5 °F 32.0 °F 57% 29.98 in 10.0 mi NNW 5.8 mph - N/A   Clear
5:15 AM 48.2 °F - 32.0 °F 54% 29.98 in 10.0 mi North 5.8 mph - N/A   Clear
5:35 AM 46.4 °F 43.5 °F 32.0 °F 57% 29.99 in 10.0 mi NNW 5.8 mph - N/A   Partly Cloudy
5:55 AM 44.6 °F 42.2 °F 30.2 °F 57% 29.99 in 10.0 mi NNW 4.6 mph - N/A   Clear
6:15 AM 44.6 °F 42.2 °F 30.2 °F 57% 29.99 in 10.0 mi North 4.6 mph - N/A   Clear
6:35 AM 44.6 °F 42.2 °F 30.2 °F 57% 30.00 in 10.0 mi NNW 4.6 mph - N/A   Clear
6:55 AM 46.4 °F 45.2 °F 32.0 °F 57% 30.02 in 10.0 mi NNW 3.5 mph - N/A   Clear
7:15 AM 48.2 °F - 33.8 °F 58% 30.02 in 10.0 mi NNW 3.5 mph - N/A   Clear
7:35 AM 51.8 °F - 35.6 °F 54% 30.02 in 10.0 mi NNW 3.5 mph - N/A   Clear
7:55 AM 53.6 °F - 37.4 °F 54% 30.02 in 10.0 mi Calm Calm - N/A   Scattered Clouds
8:15 AM 55.4 °F - 39.2 °F 54% 30.03 in 10.0 mi North 6.9 mph - N/A   Partly Cloudy
8:35 AM 59.0 °F - 42.8 °F 55% 30.03 in 10.0 mi NNE 8.1 mph - N/A   Clear
8:55 AM 59.0 °F - 44.6 °F 59% 30.03 in 10.0 mi NE 11.5 mph - N/A   Clear
9:15 AM 60.8 °F - 44.6 °F 55% 30.03 in 10.0 mi NE 10.4 mph - N/A   Clear
9:35 AM 62.6 °F - 46.4 °F 55% 30.03 in 10.0 mi NE 11.5 mph - N/A   Clear
9:55 AM 62.6 °F - 46.4 °F 55% 30.04 in 10.0 mi NE 11.5 mph - N/A   Clear
10:15 AM 64.4 °F - 48.2 °F 56% 30.04 in 10.0 mi NE 9.2 mph - N/A   Clear
10:35 AM 64.4 °F - 48.2 °F 56% 30.05 in 10.0 mi NE 8.1 mph - N/A   Clear
10:55 AM 64.4 °F - 48.2 °F 56% 30.05 in 10.0 mi NNE 5.8 mph - N/A   Clear
11:15 AM 66.2 °F - 50.0 °F 56% 30.05 in 10.0 mi NE 6.9 mph - N/A   Partly Cloudy
11:35 AM 66.2 °F - 50.0 °F 56% 30.04 in 10.0 mi NNE 6.9 mph - N/A   Partly Cloudy
11:55 AM 66.2 °F - 50.0 °F 56% 30.04 in 10.0 mi NNE 10.4 mph - N/A   Scattered Clouds
12:15 PM 66.2 °F - 50.0 °F 56% 30.04 in 10.0 mi North 6.9 mph - N/A   Scattered Clouds
12:35 PM 66.2 °F - 50.0 °F 56% 30.04 in 10.0 mi North 9.2 mph - N/A   Scattered Clouds
12:55 PM 69.8 °F - 53.6 °F 56% 30.04 in 10.0 mi NNE 8.1 mph - N/A   Scattered Clouds
1:15 PM 69.8 °F - 53.6 °F 56% 30.04 in 10.0 mi NNW 8.1 mph 19.6 mph N/A   Partly Cloudy
1:35 PM 68.0 °F - 51.8 °F 56% 30.05 in 10.0 mi North 11.5 mph 16.1 mph N/A   Mostly Cloudy
1:55 PM 68.0 °F - 53.6 °F 60% 30.05 in 10.0 mi NNW 9.2 mph 19.6 mph N/A   Scattered Clouds
2:15 PM 68.0 °F - 51.8 °F 56% 30.06 in 10.0 mi NNW 10.4 mph 21.9 mph N/A   Scattered Clouds
2:35 PM 68.0 °F - 53.6 °F 60% 30.06 in 10.0 mi NNE 10.4 mph - N/A   Scattered Clouds
2:55 PM 68.0 °F - 50.0 °F 52% 30.06 in 10.0 mi NNW 9.2 mph - N/A   Mostly Cloudy
3:15 PM 71.6 °F - 53.6 °F 53% 30.06 in 10.0 mi North 11.5 mph - N/A   Scattered Clouds
3:35 PM 68.0 °F - 53.6 °F 60% 30.06 in 10.0 mi North 10.4 mph 17.3 mph N/A   Scattered Clouds
3:55 PM 68.0 °F - 51.8 °F 56% 30.06 in 10.0 mi North 10.4 mph 16.1 mph N/A   Scattered Clouds
4:15 PM 68.0 °F - 53.6 °F 60% 30.06 in 10.0 mi North 9.2 mph - N/A   Clear
4:35 PM 69.8 °F - 53.6 °F 56% 30.06 in 10.0 mi NNW 10.4 mph 16.1 mph N/A   Clear
4:55 PM 68.0 °F - 53.6 °F 60% 30.06 in 10.0 mi North 10.4 mph - N/A   Clear
5:15 PM 68.0 °F - 51.8 °F 56% 30.07 in 10.0 mi North 11.5 mph - N/A   Partly Cloudy
5:35 PM 68.0 °F - 51.8 °F 56% 30.07 in 10.0 mi NNW 10.4 mph - N/A   Partly Cloudy
5:55 PM 68.0 °F - 51.8 °F 56% 30.07 in 10.0 mi NNW 5.8 mph - N/A   Clear
6:15 PM 68.0 °F - 51.8 °F 56% 30.07 in 10.0 mi North 11.5 mph - N/A   Mostly Cloudy
6:35 PM 68.0 °F - 50.0 °F 52% 30.07 in 10.0 mi North 10.4 mph - N/A   Scattered Clouds
6:55 PM 68.0 °F - 51.8 °F 56% 30.07 in 10.0 mi North 11.5 mph - N/A   Scattered Clouds
7:15 PM 66.2 °F - 50.0 °F 56% 30.07 in 10.0 mi North 10.4 mph - N/A   Scattered Clouds
7:35 PM 66.2 °F - 50.0 °F 56% 30.08 in 10.0 mi NNE 11.5 mph - N/A   Partly Cloudy
7:55 PM 64.4 °F - 48.2 °F 56% 30.08 in 10.0 mi NNE 8.1 mph - N/A   Partly Cloudy
8:15 PM 62.6 °F - 46.4 °F 55% 30.09 in 10.0 mi NNE 6.9 mph - N/A   Clear
8:35 PM 62.6 °F - 46.4 °F 55% 30.09 in 10.0 mi NNE 8.1 mph - N/A   Clear
8:55 PM 60.8 °F - 44.6 °F 55% 30.10 in 10.0 mi NE 8.1 mph - N/A   Clear
9:15 PM 59.0 °F - 42.8 °F 55% 30.11 in 10.0 mi NNE 5.8 mph - N/A   Clear
9:35 PM 57.2 °F - 41.0 °F 55% 30.12 in 10.0 mi NNE 4.6 mph - N/A   Clear
9:55 PM 55.4 °F - 39.2 °F 54% 30.13 in 10.0 mi NNE 3.5 mph - N/A   Clear
10:15 PM 55.4 °F - 39.2 °F 54% 30.13 in 10.0 mi NNE 4.6 mph - N/A   Clear
10:35 PM 50.0 °F - 35.6 °F 58% 30.13 in 10.0 mi NNE 3.5 mph - N/A   Clear
10:55 PM 50.0 °F - 35.6 °F 58% 30.14 in 10.0 mi NNE 4.6 mph - N/A   Clear
11:15 PM 53.6 °F - 37.4 °F 54% 30.14 in 10.0 mi NNE 5.8 mph - N/A   Clear
11:35 PM 53.6 °F - 39.2 °F 58% 30.14 in 10.0 mi NNE 5.8 mph - N/A   Clear
11:55 PM 51.8 °F - 37.4 °F 58% 30.15 in 10.0 mi NNE 4.6 mph - N/A   Clear